| time (UTC) | temp F | wind direction | speed MPH | gust MPH | rain 1hr in | rain 24hr in | rain mn in | humidity % | barometer mb |
| 20260509082019 | 78 | 225 | 0.0 | 5.0 | 0.00 | 0.00 | 0.00 | 37 | 1014.9 |
| 20260509081024 | 77 | 234 | 1.0 | 5.0 | 0.00 | 0.00 | 0.00 | 41 | 1014.8 |
| 20260509080029 | 77 | 238 | 1.0 | 8.0 | 0.00 | 0.00 | 0.00 | 43 | 1014.7 |
| 20260509075017 | 76 | 224 | 1.0 | 5.0 | 0.00 | 0.00 | 0.00 | 43 | 1014.9 |
| 20260509074022 | 75 | 221 | 2.0 | 8.0 | 0.00 | 0.00 | 0.00 | 44 | 1014.7 |
| 20260509073027 | 75 | 258 | 1.0 | 5.0 | 0.00 | 0.00 | 0.00 | 44 | 1014.9 |
| 20260509072032 | 74 | 226 | 1.0 | 5.0 | 0.00 | 0.00 | 0.00 | 46 | 1014.7 |
| 20260509071019 | 73 | 0.0 | 0.0 | 0.00 | 0.00 | 0.00 | 48 | 1014.9 | |
| 20260509070025 | 73 | 0.0 | 0.0 | 0.00 | 0.00 | 0.00 | 49 | 1014.9 | |
| 20260509065029 | 72 | 0.0 | 0.0 | 0.00 | 0.00 | 0.00 | 52 | 1014.8 | |
| 20260509064038 | 71 | 0.0 | 0.0 | 0.00 | 0.00 | 0.00 | 54 | 1014.7 | |
| 20260509063023 | 68 | 0.0 | 0.0 | 0.00 | 0.00 | 0.00 | 56 | 1014.7 | |
| 20260509062028 | 67 | 0.0 | 0.0 | 0.00 | 0.00 | 0.00 | 59 | 1014.7 | |
| 20260509061035 | 65 | 0.0 | 0.0 | 0.00 | 0.00 | 0.00 | 63 | 1014.6 | |
| 20260509060020 | 65 | 0.0 | 0.0 | 0.00 | 0.00 | 0.00 | 65 | 1014.6 | |
| 20260509054030 | 65 | 0.0 | 0.0 | 0.00 | 0.00 | 0.00 | 66 | 1014.7 | |
| 20260509053018 | 65 | 0.0 | 0.0 | 0.00 | 0.00 | 0.00 | 66 | 1014.4 | |
| 20260509052024 | 64 | 0.0 | 0.0 | 0.00 | 0.00 | 0.00 | 66 | 1014.7 | |
| 20260509051029 | 64 | 0.0 | 0.0 | 0.00 | 0.00 | 0.00 | 64 | 1014.8 | |
| 20260509050017 | 64 | 0.0 | 0.0 | 0.00 | 0.00 | 0.00 | 64 | 1014.8 | |
| 20260509045022 | 64 | 0.0 | 0.0 | 0.00 | 0.00 | 0.00 | 64 | 1014.8 | |
| 20260509044026 | 64 | 0.0 | 0.0 | 0.00 | 0.00 | 0.00 | 64 | 1014.8 | |
| 20260509043032 | 63 | 0.0 | 0.0 | 0.00 | 0.00 | 0.00 | 63 | 1014.8 | |
| 20260509042040 | 63 | 0.0 | 0.0 | 0.00 | 0.00 | 0.00 | 64 | 1014.8 | |
| 20260509041024 | 62 | 0.0 | 0.0 | 0.00 | 0.00 | 0.00 | 65 | 1014.8 | |
| 20260509040030 | 62 | 0.0 | 0.0 | 0.00 | 0.00 | 0.00 | 65 | 1014.9 | |
| 20260509035037 | 62 | 0.0 | 0.0 | 0.00 | 0.00 | 0.00 | 65 | 1014.5 | |
| 20260509034022 | 62 | 0.0 | 0.0 | 0.00 | 0.00 | 0.00 | 66 | 1014.5 | |
| 20260509033027 | 61 | 0.0 | 0.0 | 0.00 | 0.00 | 0.00 | 67 | 1014.6 | |
| 20260509032015 | 61 | 0.0 | 0.0 | 0.00 | 0.00 | 0.00 | 67 | 1014.4 | |
| 20260509031021 | 61 | 0.0 | 0.0 | 0.00 | 0.00 | 0.00 | 68 | 1014.5 | |
| 20260509030025 | 61 | 0.0 | 0.0 | 0.00 | 0.00 | 0.00 | 68 | 1014.5 | |
| 20260509025030 | 61 | 9 | 1.0 | 5.0 | 0.00 | 0.00 | 0.00 | 69 | 1014.2 |
| 20260509024019 | 61 | 0.0 | 0.0 | 0.00 | 0.00 | 0.00 | 69 | 1014.4 | |
| 20260509023023 | 62 | 0.0 | 0.0 | 0.00 | 0.00 | 0.00 | 69 | 1014.4 | |
| 20260509022028 | 62 | 0.0 | 0.0 | 0.00 | 0.00 | 0.00 | 70 | 1014.4 | |
| 20260509021016 | 62 | 0.0 | 0.0 | 0.00 | 0.00 | 0.00 | 69 | 1014.5 | |
| 20260509020021 | 62 | 0.0 | 0.0 | 0.00 | 0.00 | 0.00 | 68 | 1014.2 | |
| 20260509015027 | 62 | 0.0 | 0.0 | 0.00 | 0.00 | 0.00 | 71 | 1014.6 | |
| 20260509014031 | 62 | 0.0 | 0.0 | 0.00 | 0.00 | 0.00 | 71 | 1014.6 | |
| 20260509013020 | 62 | 0.0 | 0.0 | 0.00 | 0.00 | 0.00 | 71 | 1014.8 | |
| 20260509012024 | 62 | 0.0 | 0.0 | 0.00 | 0.00 | 0.00 | 71 | 1015.1 | |
| 20260509011050 | 62 | 0.0 | 0.0 | 0.00 | 0.00 | 0.00 | 71 | 1015.3 | |
| 20260509010017 | 63 | 0.0 | 0.0 | 0.00 | 0.00 | 0.00 | 71 | 1015.4 | |
| 20260509005042 | 63 | 0.0 | 0.0 | 0.00 | 0.00 | 0.00 | 71 | 1015.5 | |
| 20260509004048 | 63 | 0.0 | 0.0 | 0.00 | 0.00 | 0.00 | 69 | 1015.5 | |
| 20260509003015 | 63 | 0.0 | 0.0 | 0.00 | 0.00 | 0.00 | 69 | 1015.7 | |
| 20260509002020 | 63 | 0.0 | 0.0 | 0.00 | 0.00 | 0.00 | 70 | 1015.8 | |
| 20260509001025 | 63 | 0.0 | 0.0 | 0.00 | 0.00 | 0.00 | 69 | 1016.0 | |
| 20260509000050 | 63 | 0.0 | 0.0 | 0.00 | 0.00 | 0.00 | 68 | 1016.0 | |
| 20260508235039 | 63 | 0.0 | 0.0 | 0.00 | 0.00 | 0.00 | 68 | 1015.9 | |
| 20260508234023 | 64 | 0.0 | 0.0 | 0.00 | 0.00 | 0.00 | 68 | 1016.1 | |
| 20260508233028 | 64 | 0.0 | 0.0 | 0.00 | 0.00 | 0.00 | 68 | 1016.2 | |
| 20260508232016 | 64 | 0.0 | 0.0 | 0.00 | 0.00 | 0.00 | 68 | 1016.4 | |
| 20260508231041 | 64 | 0.0 | 0.0 | 0.00 | 0.00 | 0.00 | 67 | 1016.5 | |
| 20260508230026 | 64 | 0.0 | 0.0 | 0.00 | 0.00 | 0.00 | 67 | 1016.6 | |
| 20260508225031 | 65 | 0.0 | 0.0 | 0.00 | 0.00 | 0.00 | 67 | 1016.5 | |
| 20260508224019 | 65 | 0.0 | 0.0 | 0.00 | 0.00 | 0.00 | 66 | 1016.6 | |
| 20260508223024 | 65 | 0.0 | 0.0 | 0.00 | 0.00 | 0.00 | 66 | 1016.7 | |
| 20260508222049 | 65 | 0.0 | 0.0 | 0.00 | 0.00 | 0.00 | 65 | 1016.7 | |
| 20260508221017 | 66 | 235 | 1.0 | 5.0 | 0.00 | 0.00 | 0.00 | 64 | 1016.6 |
| 20260508220022 | 66 | 223 | 0.0 | 2.0 | 0.00 | 0.00 | 0.00 | 65 | 1016.8 |
| 20260508215042 | 66 | 0.0 | 0.0 | 0.00 | 0.00 | 0.00 | 63 | 1016.8 | |
| 20260508214027 | 66 | 0.0 | 0.0 | 0.00 | 0.00 | 0.00 | 62 | 1016.7 | |
| 20260508213015 | 66 | 228 | 0.0 | 2.0 | 0.00 | 0.00 | 0.00 | 61 | 1016.8 |
| 20260508212020 | 66 | 0.0 | 0.0 | 0.00 | 0.00 | 0.00 | 60 | 1016.8 | |
| 20260508211045 | 66 | 0.0 | 0.0 | 0.00 | 0.00 | 0.00 | 60 | 1016.5 | |
| 20260508210030 | 67 | 234 | 1.0 | 5.0 | 0.00 | 0.00 | 0.00 | 58 | 1016.8 |
| 20260508205018 | 67 | 247 | 0.0 | 2.0 | 0.00 | 0.00 | 0.00 | 56 | 1016.9 |
| 20260508204023 | 67 | 213 | 0.0 | 2.0 | 0.00 | 0.00 | 0.00 | 55 | 1016.8 |
| 20260508203048 | 67 | 240 | 0.0 | 5.0 | 0.00 | 0.00 | 0.00 | 55 | 1016.7 |
| 20260508202016 | 67 | 0.0 | 0.0 | 0.00 | 0.00 | 0.00 | 54 | 1016.8 | |
| 20260508201021 | 67 | 0.0 | 0.0 | 0.00 | 0.00 | 0.00 | 54 | 1016.4 | |
| 20260508200026 | 68 | 0.0 | 0.0 | 0.00 | 0.00 | 0.00 | 53 | 1016.3 | |
| 20260508195031 | 68 | 0.0 | 0.0 | 0.00 | 0.00 | 0.00 | 52 | 1016.1 | |
| 20260508194019 | 68 | 239 | 1.0 | 5.0 | 0.00 | 0.00 | 0.00 | 53 | 1016.0 |
| 20260508193024 | 68 | 0.0 | 0.0 | 0.00 | 0.00 | 0.00 | 55 | 1016.2 | |
| 20260508192029 | 67 | 0.0 | 0.0 | 0.00 | 0.00 | 0.00 | 55 | 1015.9 | |
| 20260508191017 | 67 | 259 | 0.0 | 2.0 | 0.00 | 0.00 | 0.00 | 54 | 1015.8 |
| 20260508190022 | 67 | 0.0 | 0.0 | 0.00 | 0.00 | 0.00 | 56 | 1015.8 | |
| 20260508185047 | 67 | 0.0 | 0.0 | 0.00 | 0.00 | 0.00 | 57 | 1015.8 | |
| 20260508184015 | 67 | 0.0 | 0.0 | 0.00 | 0.00 | 0.00 | 58 | 1015.5 | |
| 20260508183020 | 67 | 0.0 | 0.0 | 0.00 | 0.00 | 0.00 | 59 | 1015.5 | |
| 20260508182025 | 67 | 0.0 | 0.0 | 0.00 | 0.00 | 0.00 | 59 | 1015.5 | |
| 20260508181030 | 67 | 13 | 2.0 | 5.0 | 0.00 | 0.00 | 0.00 | 58 | 1015.4 |
| 20260508180018 | 67 | 331 | 0.0 | 2.0 | 0.00 | 0.00 | 0.00 | 58 | 1014.9 |
| 20260508175023 | 68 | 0.0 | 0.0 | 0.00 | 0.00 | 0.00 | 58 | 1015.0 | |
| 20260508174028 | 68 | 0.0 | 0.0 | 0.00 | 0.00 | 0.00 | 56 | 1014.6 | |
| 20260508173016 | 68 | 194 | 0.0 | 2.0 | 0.00 | 0.00 | 0.00 | 55 | 1014.4 |
| 20260508172021 | 69 | 236 | 1.0 | 8.0 | 0.00 | 0.00 | 0.00 | 54 | 1014.1 |
| 20260508171026 | 69 | 223 | 1.0 | 8.0 | 0.00 | 0.00 | 0.00 | 53 | 1014.5 |
| 20260508170031 | 70 | 226 | 1.0 | 8.0 | 0.00 | 0.00 | 0.00 | 52 | 1014.6 |
| 20260508165019 | 70 | 105 | 0.0 | 2.0 | 0.00 | 0.00 | 0.00 | 51 | 1014.4 |
| 20260508164024 | 71 | 281 | 1.0 | 8.0 | 0.00 | 0.00 | 0.00 | 50 | 1014.4 |
| 20260508163029 | 71 | 241 | 3.0 | 10.0 | 0.00 | 0.00 | 0.00 | 48 | 1014.4 |
| 20260508162017 | 71 | 266 | 2.0 | 10.0 | 0.00 | 0.00 | 0.00 | 48 | 1014.4 |
| 20260508161022 | 72 | 235 | 4.0 | 10.0 | 0.00 | 0.00 | 0.00 | 48 | 1014.3 |
| 20260508160027 | 72 | 237 | 3.0 | 8.0 | 0.00 | 0.00 | 0.00 | 47 | 1014.2 |
| 20260508155015 | 73 | 243 | 2.0 | 10.0 | 0.00 | 0.00 | 0.00 | 46 | 1014.4 |
| 20260508154020 | 74 | 226 | 1.0 | 8.0 | 0.00 | 0.00 | 0.00 | 45 | 1014.5 |
| 20260508153025 | 74 | 286 | 1.0 | 8.0 | 0.00 | 0.00 | 0.00 | 44 | 1014.5 |
| 20260508152030 | 74 | 241 | 1.0 | 10.0 | 0.00 | 0.00 | 0.00 | 44 | 1014.3 |
| 20260508151018 | 75 | 259 | 3.0 | 13.0 | 0.00 | 0.00 | 0.00 | 45 | 1014.5 |
| 20260508150043 | 75 | 255 | 2.0 | 10.0 | 0.00 | 0.00 | 0.00 | 44 | 1014.2 |
| 20260508145028 | 76 | 235 | 2.0 | 8.0 | 0.00 | 0.00 | 0.00 | 44 | 1014.3 |
| 20260508144016 | 76 | 243 | 3.0 | 13.0 | 0.00 | 0.00 | 0.00 | 46 | 1014.2 |
| 20260508143021 | 76 | 256 | 1.0 | 8.0 | 0.00 | 0.00 | 0.00 | 46 | 1014.2 |
| 20260508142026 | 76 | 241 | 3.0 | 13.0 | 0.00 | 0.00 | 0.00 | 45 | 1014.2 |
| 20260508141031 | 77 | 237 | 3.0 | 10.0 | 0.00 | 0.00 | 0.00 | 42 | 1014.4 |
| 20260508140019 | 76 | 227 | 2.0 | 10.0 | 0.00 | 0.00 | 0.00 | 42 | 1014.5 |
| 20260508135024 | 76 | 241 | 3.0 | 8.0 | 0.00 | 0.00 | 0.00 | 41 | 1014.6 |
| 20260508134029 | 76 | 214 | 3.0 | 10.0 | 0.00 | 0.00 | 0.00 | 43 | 1014.9 |
| 20260508133017 | 76 | 260 | 2.0 | 8.0 | 0.00 | 0.00 | 0.00 | 42 | 1015.0 |
| 20260508132021 | 76 | 242 | 4.0 | 13.0 | 0.00 | 0.00 | 0.00 | 42 | 1015.2 |
| 20260508131027 | 76 | 232 | 3.0 | 10.0 | 0.00 | 0.00 | 0.00 | 42 | 1015.2 |
| 20260508130015 | 75 | 216 | 2.0 | 10.0 | 0.00 | 0.00 | 0.00 | 40 | 1015.3 |
| 20260508125020 | 75 | 230 | 3.0 | 5.0 | 0.00 | 0.00 | 0.00 | 39 | 1015.5 |
| 20260508124025 | 74 | 245 | 3.0 | 10.0 | 0.00 | 0.00 | 0.00 | 40 | 1015.8 |
| 20260508123030 | 74 | 232 | 4.0 | 13.0 | 0.00 | 0.00 | 0.00 | 40 | 1015.9 |
| 20260508122018 | 74 | 221 | 4.0 | 13.0 | 0.00 | 0.00 | 0.00 | 40 | 1016.1 |
| 20260508121023 | 74 | 247 | 4.0 | 15.0 | 0.00 | 0.00 | 0.00 | 40 | 1016.3 |
| 20260508120048 | 73 | 224 | 4.0 | 13.0 | 0.00 | 0.00 | 0.00 | 41 | 1015.9 |
| 20260508115016 | 72 | 238 | 5.0 | 13.0 | 0.00 | 0.00 | 0.00 | 41 | 1016.2 |
| 20260508114021 | 72 | 215 | 1.0 | 8.0 | 0.00 | 0.00 | 0.00 | 46 | 1016.0 |
| 20260508113026 | 72 | 122 | 1.0 | 5.0 | 0.00 | 0.00 | 0.00 | 47 | 1015.8 |
| 20260508112031 | 71 | 257 | 0.0 | 2.0 | 0.00 | 0.00 | 0.00 | 47 | 1016.4 |
| 20260508111019 | 71 | 345 | 0.0 | 2.0 | 0.00 | 0.00 | 0.00 | 49 | 1016.7 |
| 20260508110044 | 71 | 278 | 0.0 | 2.0 | 0.00 | 0.00 | 0.00 | 49 | 1016.8 |
| 20260508105029 | 71 | 0.0 | 0.0 | 0.00 | 0.00 | 0.00 | 49 | 1017.0 | |
| 20260508104017 | 71 | 268 | 0.0 | 2.0 | 0.00 | 0.00 | 0.00 | 50 | 1017.2 |
| 20260508103022 | 70 | 288 | 1.0 | 5.0 | 0.00 | 0.00 | 0.00 | 50 | 1017.4 |
| 20260508102026 | 70 | 0.0 | 0.0 | 0.00 | 0.00 | 0.00 | 51 | 1017.3 | |
| 20260508101015 | 70 | 271 | 0.0 | 5.0 | 0.00 | 0.00 | 0.00 | 52 | 1017.4 |
| 20260508100019 | 70 | 243 | 0.0 | 5.0 | 0.00 | 0.00 | 0.00 | 52 | 1017.5 |
| 20260508095045 | 71 | 262 | 1.0 | 5.0 | 0.00 | 0.00 | 0.00 | 52 | 1017.8 |
| 20260508094031 | 71 | 176 | 0.0 | 2.0 | 0.00 | 0.00 | 0.00 | 51 | 1018.1 |
| 20260508093038 | 70 | 280 | 0.0 | 5.0 | 0.00 | 0.00 | 0.00 | 49 | 1017.9 |
| 20260508092023 | 70 | 250 | 2.0 | 8.0 | 0.00 | 0.00 | 0.00 | 50 | 1018.0 |
| 20260508091028 | 69 | 219 | 1.0 | 8.0 | 0.00 | 0.00 | 0.00 | 51 | 1018.0 |
| 20260508090016 | 69 | 248 | 0.0 | 5.0 | 0.00 | 0.00 | 0.00 | 53 | 1018.1 |
| 20260508085020 | 68 | 235 | 1.0 | 8.0 | 0.00 | 0.00 | 0.00 | 55 | 1018.1 |
| 20260508084025 | 68 | 325 | 0.0 | 2.0 | 0.00 | 0.00 | 0.00 | 55 | 1018.2 |
| 20260508083031 | 68 | 0.0 | 0.0 | 0.00 | 0.00 | 0.00 | 53 | 1018.1 |